,,Stat6,,Stat2,,Stat8,,Stat9,,Stat10,,Wind1,,Wind1,
time,status,PA1M_AVG,status,PR1M_SUM,status,RH1M_AVG,status,SR1M_AVG,status,TA1M_AVG,status,W1dAve1m,status,W1sAve1m,
2009-06-01, 00:00:00,VALID,917.369,VALID,0,VALID,100,VALID,0,VALID,21.0704,VALID,180,VALID,0.553943,
2009-06-01, 00:01:00,VALID,917.386,VALID,0,VALID,100,VALID,0,VALID,21.0926,VALID,190,VALID,0.272529,
2009-06-01, 00:02:00,VALID,917.394,VALID,0,VALID,100,VALID,0,VALID,21.0964,VALID,190,VALID,0,
2009-06-01, 00:03:00,VALID,917.412,VALID,0,VALID,100,VALID,0,VALID,21.0704,VALID,190,VALID,0,
2009-06-01, 00:04:00,VALID,917.417,VALID,0,VALID,100,VALID,-0.0169808,VALID,21.0117,VALID,190,VALID,0,
2009-06-01, 00:05:00,VALID,917.409,VALID,0,VALID,100,VALID,0.0169808,VALID,20.9338,VALID,190,VALID,0,
2009-06-01, 00:06:00,VALID,917.38,VALID,0,VALID,100,VALID,-0.0169808,VALID,20.9146,VALID,190,VALID,0,
2009-06-01, 00:07:00,VALID,917.363,VALID,0,VALID,100,VALID,0,VALID,20.9368,VALID,190,VALID,0,
2009-06-01, 00:08:00,VALID,917.347,VALID,0,VALID,100,VALID,-0.0169808,VALID,20.976,VALID,190,VALID,0,
2009-06-01, 00:09:00,VALID,917.311,VALID,0,VALID,100,VALID,0.0169808,VALID,21.0017,VALID,190,VALID,0,
2009-06-01, 00:10:00,VALID,917.296,VALID,0,VALID,100,VALID,0,VALID,20.9944,VALID,190,VALID,0.289595,
2009-06-01, 00:11:00,VALID,917.273,VALID,0,VALID,100,VALID,-0.0169808,VALID,21.0087,VALID,190,VALID,0.532885,
2009-06-01, 00:12:00,VALID,917.265,VALID,0,VALID,100,VALID,-0.0169808,VALID,21.0055,VALID,190,VALID,0.59976,
2009-06-01, 00:13:00,VALID,917.265,VALID,0,VALID,100,VALID,-0.0339617,VALID,21.0117,VALID,190,VALID,0.0626776,
2009-06-01, 00:14:00,VALID,917.255,VALID,0,VALID,100,VALID,0,VALID,21.0314,VALID,190,VALID,0,
2009-06-01, 00:15:00,VALID,917.252,VALID,0,VALID,100,VALID,-0.0169808,VALID,21.0282,VALID,190,VALID,0,
2009-06-01, 00:16:00,VALID,917.25,VALID,0,VALID,100,VALID,-0.0169808,VALID,20.9922,VALID,190,VALID,0,
2009-06-01, 00:17:00,VALID,917.248,VALID,0,VALID,100,VALID,0,VALID,20.9438,VALID,190,VALID,0,
2009-06-01, 00:18:00,VALID,917.247,VALID,0,VALID,100,VALID,-0.0169808,VALID,20.8808,VALID,190,VALID,0,
2009-06-01, 00:19:00,VALID,917.233,VALID,0,VALID,100,VALID,0,VALID,20.8586,VALID,190,VALID,0,
2009-06-01, 00:20:00,VALID,917.219,VALID,0,VALID,100,VALID,0,VALID,20.8721,VALID,188,VALID,0.317116,
2009-06-01, 00:21:00,VALID,917.183,VALID,0,VALID,100,VALID,0,VALID,20.9146,VALID,186,VALID,0.471657,
2009-06-01, 00:22:00,VALID,917.143,VALID,0,VALID,100,VALID,0.0169808,VALID,20.9165,VALID,192,VALID,0.179688,
2009-06-01, 00:23:00,VALID,917.118,VALID,0,VALID,100,VALID,0.0169808,VALID,20.8719,VALID,204,VALID,0.242535,
2009-06-01, 00:24:00,VALID,917.078,VALID,0,VALID,100,VALID,-0.0509425,VALID,20.8202,VALID,149,VALID,0.680804,
2009-06-01, 00:25:00,VALID,917.064,VALID,0,VALID,100,VALID,-0.101885,VALID,20.8185,VALID,143,VALID,0.580543,
2009-06-01, 00:26:00,VALID,917.041,VALID,0,VALID,100,VALID,-0.101885,VALID,20.844,VALID,146,VALID,0.458394,
2009-06-01, 00:27:00,VALID,917.034,VALID,0,VALID,100,VALID,-0.0679233,VALID,20.841,VALID,168,VALID,0.594444,
2009-06-01, 00:28:00,VALID,917.032,VALID,0,VALID,100,VALID,-0.101885,VALID,20.8572,VALID,178,VALID,0.682813,
2009-06-01, 00:29:00,VALID,917.029,VALID,0,VALID,100,VALID,-0.101885,VALID,20.8834,VALID,178,VALID,0.015811,
2009-06-01, 00:30:00,VALID,917.034,VALID,0,VALID,100,VALID,-0.0849042,VALID,20.9024,VALID,178,VALID,0.46946,
2009-06-01, 00:31:00,VALID,917.01,VALID,0,VALID,100,VALID,-0.0339617,VALID,20.9151,VALID,177,VALID,0.503634,
2009-06-01, 00:32:00,VALID,916.99,VALID,0,VALID,100,VALID,-0.0509425,VALID,20.9216,VALID,173,VALID,0.398819,
2009-06-01, 00:33:00,VALID,916.975,VALID,0,VALID,100,VALID,-0.101885,VALID,20.9416,VALID,178,VALID,0.531605,
2009-06-01, 00:34:00,VALID,916.966,VALID,0,VALID,100,VALID,-0.101885,VALID,20.9378,VALID,173,VALID,0.640803,
2009-06-01, 00:35:00,VALID,916.951,VALID,0,VALID,100,VALID,-0.0679233,VALID,20.9376,VALID,162,VALID,0.696265,
2009-06-01, 00:36:00,VALID,916.942,VALID,0,VALID,100,VALID,-0.0849042,VALID,20.9411,VALID,166,VALID,0.804869,
2009-06-01, 00:37:00,VALID,916.937,VALID,0,VALID,100,VALID,-0.0849042,VALID,20.9511,VALID,170,VALID,0.593941,
2009-06-01, 00:38:00,VALID,916.962,VALID,0,VALID,100,VALID,-0.101885,VALID,20.9378,VALID,159,VALID,0.696615,
2009-06-01, 00:39:00,VALID,916.992,VALID,0,VALID,100,VALID,0.0169808,VALID,20.9365,VALID,161,VALID,0.626164,
2009-06-01, 00:40:00,VALID,917.023,VALID,0,VALID,100,VALID,-0.0169808,VALID,20.9405,VALID,140,VALID,0.337573,
2009-06-01, 00:41:00,VALID,917.044,VALID,0,VALID,100,VALID,0.0339617,VALID,20.907,VALID,139,VALID,0.361793,
2009-06-01, 00:42:00,VALID,917.056,VALID,0,VALID,100,VALID,0,VALID,20.9073,VALID,134,VALID,0.109184,
2009-06-01, 00:43:00,VALID,917.067,VALID,0,VALID,100,VALID,0,VALID,20.8778,VALID,134,VALID,0,
2009-06-01, 00:44:00,VALID,917.045,VALID,0,VALID,100,VALID,0,VALID,20.8719,VALID,141,VALID,0,
2009-06-01, 00:45:00,VALID,917.039,VALID,0,VALID,100,VALID,0.0169808,VALID,20.8813,VALID,150,VALID,0,
2009-06-01, 00:46:00,VALID,917,VALID,0,VALID,100,VALID,-0.0169808,VALID,20.9008,VALID,149,VALID,0,
2009-06-01, 00:47:00,VALID,916.966,VALID,0,VALID,100,VALID,0,VALID,20.9076,VALID,149,VALID,0,
2009-06-01, 00:48:00,VALID,916.94,VALID,0,VALID,100,VALID,0,VALID,20.9176,VALID,149,VALID,0,
2009-06-01, 00:49:00,VALID,916.918,VALID,0,VALID,100,VALID,0,VALID,20.9143,VALID,128,VALID,0.0241642,
2009-06-01, 00:50:00,VALID,916.901,VALID,0,VALID,100,VALID,-0.0339617,VALID,20.8721,VALID,83,VALID,0.864029,
2009-06-01, 00:51:00,VALID,916.892,VALID,0,VALID,100,VALID,0,VALID,20.7942,VALID,65,VALID,1.1391,
2009-06-01, 00:52:00,VALID,916.869,VALID,0,VALID,100,VALID,0,VALID,20.7715,VALID,81,VALID,0.852273,
2009-06-01, 00:53:00,VALID,916.844,VALID,0,VALID,100,VALID,0,VALID,20.781,VALID,102,VALID,0.737282,
2009-06-01, 00:54:00,VALID,916.828,VALID,0,VALID,100,VALID,0,VALID,20.771,VALID,115,VALID,0.719105,
2009-06-01, 00:55:00,VALID,916.812,VALID,0,VALID,100,VALID,0,VALID,20.788,VALID,137,VALID,0.850195,
2009-06-01, 00:56:00,VALID,916.832,VALID,0,VALID,100,VALID,0,VALID,20.7642,VALID,139,VALID,0.625372,
2009-06-01, 00:57:00,VALID,916.836,VALID,0,VALID,100,VALID,0.0169808,VALID,20.7612,VALID,129,VALID,1.03832,
2009-06-01, 00:58:00,VALID,916.842,VALID,0,VALID,100,VALID,0,VALID,20.755,VALID,137,VALID,0.86701,
2009-06-01, 00:59:00,VALID,916.833,VALID,0,VALID,100,VALID,-0.0169808,VALID,20.7285,VALID,121,VALID,0.510861,
2009-06-01, 01:00:00,VALID,916.809,VALID,0,VALID,100,VALID,0,VALID,20.7253,VALID,97,VALID,0.478237,
2009-06-01, 01:01:00,VALID,916.782,VALID,0,VALID,100,VALID,0,VALID,20.7126,VALID,87,VALID,0.533984,
2009-06-01, 01:02:00,VALID,916.761,VALID,0,VALID,100,VALID,0.0509425,VALID,20.6993,VALID,75,VALID,0.642361,
2009-06-01, 01:03:00,VALID,916.737,VALID,0,VALID,100,VALID,0.0169808,VALID,20.6771,VALID,75,VALID,0.434956,
2009-06-01, 01:04:00,VALID,916.732,VALID,0,VALID,100,VALID,0,VALID,20.6601,VALID,75,VALID,0.0157986,
2009-06-01, 01:05:00,VALID,916.737,VALID,0,VALID,100,VALID,0.0169808,VALID,20.6704,VALID,75,VALID,0,
2009-06-01, 01:06:00,VALID,916.752,VALID,0,VALID,100,VALID,0.0169808,VALID,20.6736,VALID,75,VALID,0,
2009-06-01, 01:07:00,VALID,916.785,VALID,0,VALID,100,VALID,0,VALID,20.6671,VALID,75,VALID,0,
2009-06-01, 01:08:00,VALID,916.807,VALID,0,VALID,100,VALID,0.0169808,VALID,20.6636,VALID,75,VALID,0,
2009-06-01, 01:09:00,VALID,916.807,VALID,0,VALID,100,VALID,-0.0679233,VALID,20.6841,VALID,75,VALID,0,
2009-06-01, 01:10:00,VALID,916.801,VALID,0,VALID,100,VALID,-0.101885,VALID,20.656,VALID,75,VALID,0,
2009-06-01, 01:11:00,VALID,916.768,VALID,0,VALID,100,VALID,-0.118866,VALID,20.5945,VALID,75,VALID,0,
2009-06-01, 01:12:00,VALID,916.746,VALID,0,VALID,100,VALID,-0.0849042,VALID,20.5783,VALID,75,VALID,0,
2009-06-01, 01:13:00,VALID,916.706,VALID,0,VALID,100,VALID,-0.0849042,VALID,20.5746,VALID,75,VALID,0,
2009-06-01, 01:14:00,VALID,916.701,VALID,0,VALID,100,VALID,-0.0509425,VALID,20.5813,VALID,75,VALID,0,
2009-06-01, 01:15:00,VALID,916.698,VALID,0,VALID,100,VALID,-0.101885,VALID,20.5521,VALID,61,VALID,0,
2009-06-01, 01:16:00,VALID,916.737,VALID,0,VALID,100,VALID,-0.101885,VALID,20.5548,VALID,43,VALID,0,
2009-06-01, 01:17:00,VALID,916.765,VALID,0,VALID,100,VALID,-0.101885,VALID,20.5424,VALID,33,VALID,0,
2009-06-01, 01:18:00,VALID,916.789,VALID,0,VALID,100,VALID,-0.0849042,VALID,20.5781,VALID,25,VALID,0.968945,
2009-06-01, 01:19:00,VALID,916.798,VALID,0,VALID,100,VALID,-0.101885,VALID,20.6332,VALID,20,VALID,0.892045,
2009-06-01, 01:20:00,VALID,916.805,VALID,0,VALID,100,VALID,-0.118866,VALID,20.6517,VALID,17,VALID,0.748757,
2009-06-01, 01:21:00,VALID,916.787,VALID,0,VALID,100,VALID,-0.101885,VALID,20.6752,VALID,12,VALID,0.799716,
2009-06-01, 01:22:00,VALID,916.762,VALID,0,VALID,100,VALID,-0.118866,VALID,20.6814,VALID,10,VALID,0.533789,
2009-06-01, 01:23:00,VALID,916.743,VALID,0,VALID,100,VALID,-0.118866,VALID,20.7306,VALID,11,VALID,0.734549,
2009-06-01, 01:24:00,VALID,916.727,VALID,0,VALID,100,VALID,-0.0849042,VALID,20.7458,VALID,1,VALID,0.735085,
2009-06-01, 01:25:00,VALID,916.724,VALID,0,VALID,100,VALID,-0.101885,VALID,20.7823,VALID,353,VALID,0.752668,
2009-06-01, 01:26:00,VALID,916.697,VALID,0,VALID,100,VALID,-0.101885,VALID,20.8085,VALID,353,VALID,0.672433,
2009-06-01, 01:27:00,VALID,916.688,VALID,0,VALID,100,VALID,-0.101885,VALID,20.8015,VALID,356,VALID,0.59747,
2009-06-01, 01:28:00,VALID,916.692,VALID,0,VALID,100,VALID,-0.118866,VALID,20.8118,VALID,2,VALID,0.811198,
2009-06-01, 01:29:00,VALID,916.707,VALID,0,VALID,100,VALID,-0.101885,VALID,20.8183,VALID,3,VALID,0.900136,
2009-06-01, 01:30:00,VALID,916.716,VALID,0,VALID,100,VALID,-0.0849042,VALID,20.8242,VALID,10,VALID,1.10258,
2009-06-01, 01:31:00,VALID,916.727,VALID,0,VALID,100,VALID,-0.101885,VALID,20.8437,VALID,16,VALID,0.537157,
2009-06-01, 01:32:00,VALID,916.732,VALID,0,VALID,100,VALID,-0.0849042,VALID,20.8599,VALID,6,VALID,0.269531,
2009-06-01, 01:33:00,VALID,916.715,VALID,0,VALID,100,VALID,-0.101885,VALID,20.8756,VALID,312,VALID,0.384527,
2009-06-01, 01:34:00,VALID,916.714,VALID,0,VALID,100,VALID,-0.0679233,VALID,20.9084,VALID,297,VALID,0,
2009-06-01, 01:35:00,VALID,916.717,VALID,0,VALID,100,VALID,-0.0849042,VALID,20.9443,VALID,297,VALID,0,
2009-06-01, 01:36:00,VALID,916.722,VALID,0,VALID,100,VALID,-0.101885,VALID,20.9643,VALID,297,VALID,0,
2009-06-01, 01:37:00,VALID,916.741,VALID,0,VALID,100,VALID,-0.101885,VALID,20.9443,VALID,297,VALID,0,
2009-06-01, 01:38:00,VALID,916.76,VALID,0,VALID,100,VALID,-0.101885,VALID,20.9543,VALID,304,VALID,0.0625,
2009-06-01, 01:39:00,VALID,916.757,VALID,0,VALID,100,VALID,-0.0339617,VALID,20.9473,VALID,6,VALID,0.663154,
2009-06-01, 01:40:00,VALID,916.762,VALID,0,VALID,100,VALID,-0.101885,VALID,20.9541,VALID,11,VALID,0.766197,
2009-06-01, 01:41:00,VALID,916.737,VALID,0,VALID,100,VALID,-0.0679233,VALID,20.947,VALID,14,VALID,0.704241,
2009-06-01, 01:42:00,VALID,916.716,VALID,0,VALID,100,VALID,-0.0849042,VALID,20.9473,VALID,5,VALID,0.725654,
2009-06-01, 01:43:00,VALID,916.676,VALID,0,VALID,100,VALID,-0.0849042,VALID,20.9441,VALID,351,VALID,0.554332,
2009-06-01, 01:44:00,VALID,916.622,VALID,0,VALID,100,VALID,-0.101885,VALID,20.9541,VALID,337,VALID,0.518111,
2009-06-01, 01:45:00,VALID,916.584,VALID,0,VALID,100,VALID,-0.101885,VALID,20.9641,VALID,336,VALID,0.0358665,
2009-06-01, 01:46:00,VALID,916.559,VALID,0,VALID,100,VALID,-0.101885,VALID,20.9706,VALID,296,VALID,0,
2009-06-01, 01:47:00,VALID,916.549,VALID,0,VALID,100,VALID,-0.0849042,VALID,20.9668,VALID,274,VALID,0,
2009-06-01, 01:48:00,VALID,916.544,VALID,0,VALID,100,VALID,-0.0849042,VALID,20.9771,VALID,274,VALID,0,
2009-06-01, 01:49:00,VALID,916.543,VALID,0,VALID,100,VALID,-0.101885,VALID,20.9938,VALID,281,VALID,0,
2009-06-01, 01:50:00,VALID,916.565,VALID,0,VALID,100,VALID,-0.118866,VALID,21.0293,VALID,15,VALID,0.529948,
2009-06-01, 01:51:00,VALID,916.582,VALID,0,VALID,100,VALID,-0.101885,VALID,21.006,VALID,33,VALID,0.918324,
2009-06-01, 01:52:00,VALID,916.594,VALID,0,VALID,100,VALID,-0.101885,VALID,21.0295,VALID,26,VALID,0.752544,
2009-06-01, 01:53:00,VALID,916.59,VALID,0,VALID,100,VALID,-0.101885,VALID,21.0255,VALID,21,VALID,0.4913,
2009-06-01, 01:54:00,VALID,916.598,VALID,0,VALID,100,VALID,-0.0169808,VALID,21.0604,VALID,21,VALID,0.232887,
2009-06-01, 01:55:00,VALID,916.595,VALID,0,VALID,100,VALID,0.0169808,VALID,21.0791,VALID,21,VALID,0,
2009-06-01, 01:56:00,VALID,916.587,VALID,0,VALID,100,VALID,0.0169808,VALID,21.0626,VALID,21,VALID,0,
2009-06-01, 01:57:00,VALID,916.591,VALID,0,VALID,100,VALID,0,VALID,21.0753,VALID,21,VALID,0,
2009-06-01, 01:58:00,VALID,916.603,VALID,0,VALID,100,VALID,0,VALID,21.0923,VALID,21,VALID,0,
2009-06-01, 01:59:00,VALID,916.618,VALID,0,VALID,100,VALID,0.0509425,VALID,21.0888,VALID,21,VALID,0,
2009-06-01, 02:00:00,VALID,916.644,VALID,0,VALID,100,VALID,-0.0169808,VALID,21.0953,VALID,21,VALID,0,
2009-06-01, 02:01:00,VALID,916.671,VALID,0,VALID,100,VALID,0,VALID,21.072,VALID,24,VALID,0.0711263,
2009-06-01, 02:02:00,VALID,916.662,VALID,0,VALID,100,VALID,0,VALID,21.0558,VALID,28,VALID,0.931286,
2009-06-01, 02:03:00,VALID,916.656,VALID,0,VALID,100,VALID,0,VALID,21.0369,VALID,15,VALID,0.630716,
2009-06-01, 02:04:00,VALID,916.624,VALID,0,VALID,100,VALID,0,VALID,21.0206,VALID,15,VALID,0.0166903,
2009-06-01, 02:05:00,VALID,916.58,VALID,0,VALID,100,VALID,0,VALID,21.0141,VALID,15,VALID,0,
2009-06-01, 02:06:00,VALID,916.515,VALID,0,VALID,100,VALID,-0.0169808,VALID,21.0309,VALID,15,VALID,0,
2009-06-01, 02:07:00,VALID,916.467,VALID,0,VALID,100,VALID,-0.0169808,VALID,21.0339,VALID,15,VALID,0,
2009-06-01, 02:08:00,VALID,916.404,VALID,0,VALID,100,VALID,0.0339617,VALID,21.0269,VALID,14,VALID,0,
2009-06-01, 02:09:00,VALID,916.373,VALID,0,VALID,100,VALID,-0.0679233,VALID,21.0185,VALID,360,VALID,0,
2009-06-01, 02:10:00,VALID,916.365,VALID,0,VALID,100,VALID,-0.101885,VALID,21.0028,VALID,349,VALID,0,
2009-06-01, 02:11:00,VALID,916.365,VALID,0,VALID,100,VALID,-0.118866,VALID,21.0195,VALID,343,VALID,0,
2009-06-01, 02:12:00,VALID,916.355,VALID,0,VALID,100,VALID,-0.101885,VALID,21.0095,VALID,343,VALID,0,
2009-06-01, 02:13:00,VALID,916.363,VALID,0,VALID,100,VALID,-0.101885,VALID,21.0195,INVALID,360,VALID,0,
2009-06-01, 02:14:00,VALID,916.372,VALID,0,VALID,100,VALID,-0.118866,VALID,21.0322,INVALID,360,VALID,0,
2009-06-01, 02:15:00,VALID,916.379,VALID,0,VALID,100,VALID,-0.0849042,VALID,21.0587,VALID,360,VALID,0,
2009-06-01, 02:16:00,VALID,916.398,VALID,0,VALID,100,VALID,-0.101885,VALID,21.0912,VALID,5,VALID,0.689453,
2009-06-01, 02:17:00,VALID,916.403,VALID,0,VALID,100,VALID,-0.101885,VALID,21.0809,VALID,10,VALID,0.697409,
2009-06-01, 02:18:00,VALID,916.424,VALID,0,VALID,100,VALID,-0.101885,VALID,21.0485,VALID,10,VALID,0.58631,
2009-06-01, 02:19:00,VALID,916.446,VALID,0,VALID,100,VALID,-0.0849042,VALID,21.0417,VALID,10,VALID,0.415516,
2009-06-01, 02:20:00,VALID,916.479,VALID,0,VALID,100,VALID,-0.118866,VALID,21.0644,VALID,10,VALID,0.377544,
2009-06-01, 02:21:00,VALID,916.502,VALID,0,VALID,100,VALID,-0.101885,VALID,21.0674,VALID,44,VALID,0.711939,
2009-06-01, 02:22:00,VALID,916.517,VALID,0,VALID,100,VALID,-0.101885,VALID,21.0252,VALID,64,VALID,0.7371,
2009-06-01, 02:23:00,VALID,916.514,VALID,0,VALID,100,VALID,-0.0849042,VALID,20.986,VALID,64,VALID,0.628348,
2009-06-01, 02:24:00,VALID,916.514,VALID,0,VALID,100,VALID,-0.0509425,VALID,21.0017,VALID,52,VALID,0.496394,
2009-06-01, 02:25:00,VALID,916.485,VALID,0,VALID,100,VALID,0,VALID,20.9982,VALID,58,VALID,0.561047,
2009-06-01, 02:26:00,VALID,916.442,VALID,0,VALID,100,VALID,-0.0169808,VALID,20.9527,VALID,80,VALID,0.678925,
2009-06-01, 02:27:00,VALID,916.39,VALID,0,VALID,100,VALID,0,VALID,20.933,VALID,78,VALID,0.493019,
2009-06-01, 02:28:00,VALID,916.347,VALID,0,VALID,100,VALID,0,VALID,20.9592,VALID,71,VALID,0.205915,
2009-06-01, 02:29:00,VALID,916.301,VALID,0,VALID,100,VALID,0,VALID,20.9649,VALID,70,VALID,0,
2009-06-01, 02:30:00,VALID,916.279,VALID,0,VALID,100,VALID,0.0169808,VALID,20.9949,VALID,67,VALID,0,
2009-06-01, 02:31:00,VALID,916.27,VALID,0,VALID,100,VALID,-0.0169808,VALID,20.9855,VALID,67,VALID,0,
2009-06-01, 02:32:00,VALID,916.263,VALID,0,VALID,100,VALID,-0.0509425,VALID,20.9657,VALID,62,VALID,0,
2009-06-01, 02:33:00,VALID,916.274,VALID,0,VALID,100,VALID,-0.0339617,VALID,20.966,VALID,50,VALID,0,
2009-06-01, 02:34:00,VALID,916.255,VALID,0,VALID,100,VALID,-0.0169808,VALID,21.0014,VALID,43,VALID,0,
2009-06-01, 02:35:00,VALID,916.235,VALID,0,VALID,100,VALID,0,VALID,21.0306,VALID,37,VALID,0,
2009-06-01, 02:36:00,VALID,916.186,VALID,0,VALID,100,VALID,-0.0169808,VALID,21.0539,VALID,37,VALID,0,
2009-06-01, 02:37:00,VALID,916.144,VALID,0,VALID,100,VALID,-0.0169808,VALID,21.0501,VALID,37,VALID,0,
2009-06-01, 02:38:00,VALID,916.084,VALID,0,VALID,100,VALID,-0.0169808,VALID,21.0539,VALID,37,VALID,0,
2009-06-01, 02:39:00,VALID,916.057,VALID,0,VALID,100,VALID,0.0169808,VALID,21.0431,VALID,37,VALID,0,
2009-06-01, 02:40:00,VALID,916.034,VALID,0,VALID,100,VALID,-0.0169808,VALID,21.0439,VALID,37,VALID,0,
2009-06-01, 02:41:00,VALID,916.053,VALID,0,VALID,100,VALID,0,VALID,21.0404,VALID,37,VALID,0,
2009-06-01, 02:42:00,VALID,916.075,VALID,0,VALID,100,VALID,-0.0169808,VALID,21.0469,VALID,47,VALID,0,
2009-06-01, 02:43:00,VALID,916.092,VALID,0,VALID,100,VALID,-0.0169808,VALID,21.0336,VALID,53,VALID,0,
2009-06-01, 02:44:00,VALID,916.113,VALID,0,VALID,100,VALID,-0.0169808,VALID,20.9855,VALID,58,VALID,0.299964,
2009-06-01, 02:45:00,VALID,916.126,VALID,0.2,VALID,100,VALID,-0.0169808,VALID,20.9498,VALID,59,VALID,0.540879,
2009-06-01, 02:46:00,VALID,916.111,VALID,0,VALID,100,VALID,-0.0339617,VALID,20.9273,VALID,59,VALID,0.365327,
2009-06-01, 02:47:00,VALID,916.099,VALID,0,VALID,100,VALID,0,VALID,20.9105,VALID,59,VALID,0.0430596,
2009-06-01, 02:48:00,VALID,916.073,VALID,0,VALID,100,VALID,0,VALID,20.9303,VALID,59,VALID,0,
2009-06-01, 02:49:00,VALID,916.071,VALID,0,VALID,100,VALID,-0.0169808,VALID,20.9362,VALID,59,VALID,0,
2009-06-01, 02:50:00,VALID,916.087,VALID,0,VALID,100,VALID,-0.0169808,VALID,20.949,VALID,59,VALID,0,
2009-06-01, 02:51:00,VALID,916.089,VALID,0,VALID,100,VALID,-0.0339617,VALID,20.9135,VALID,59,VALID,0,
2009-06-01, 02:52:00,VALID,916.089,VALID,0,VALID,100,VALID,-0.0169808,VALID,20.8816,VALID,59,VALID,0,
2009-06-01, 02:53:00,VALID,916.101,VALID,0,VALID,100,VALID,-0.0169808,VALID,20.8554,VALID,59,VALID,0,
2009-06-01, 02:54:00,VALID,916.083,VALID,0,VALID,100,VALID,-0.0169808,VALID,20.8489,VALID,59,VALID,0,
2009-06-01, 02:55:00,VALID,916.07,VALID,0,VALID,100,VALID,0,VALID,20.8429,VALID,59,VALID,0,
2009-06-01, 02:56:00,VALID,916.049,VALID,0,VALID,100,VALID,0,VALID,20.8591,VALID,59,VALID,0,
2009-06-01, 02:57:00,VALID,916.038,VALID,0,VALID,100,VALID,0,VALID,20.8754,VALID,59,VALID,0,
2009-06-01, 02:58:00,VALID,916.028,VALID,0,VALID,100,VALID,-0.0509425,VALID,20.8689,VALID,59,VALID,0,
2009-06-01, 02:59:00,VALID,916.028,VALID,0,VALID,100,VALID,0,VALID,20.8724,VALID,59,VALID,0,
2009-06-01, 03:00:00,VALID,916.058,VALID,0,VALID,100,VALID,-0.0509425,VALID,20.8626,VALID,59,VALID,0,
2009-06-01, 03:01:00,VALID,916.107,VALID,0,VALID,100,VALID,-0.0339617,VALID,20.8526,VALID,59,VALID,0,
2009-06-01, 03:02:00,VALID,916.148,VALID,0,VALID,100,VALID,-0.0509425,VALID,20.8529,VALID,59,VALID,0,
2009-06-01, 03:03:00,VALID,916.188,VALID,0,VALID,100,VALID,0,VALID,20.8462,VALID,59,VALID,0,
2009-06-01, 03:04:00,VALID,916.208,VALID,0,VALID,100,VALID,0,VALID,20.788,VALID,61,VALID,0,
2009-06-01, 03:05:00,VALID,916.211,VALID,0,VALID,100,VALID,0,VALID,20.7553,VALID,87,VALID,0.775391,
2009-06-01, 03:06:00,VALID,916.215,VALID,0,VALID,100,VALID,-0.0339617,VALID,20.7231,VALID,108,VALID,1.04233,
2009-06-01, 03:07:00,VALID,916.207,VALID,0,VALID,100,VALID,-0.0509425,VALID,20.6968,VALID,111,VALID,1.29706,
2009-06-01, 03:08:00,VALID,916.191,VALID,0,VALID,100,VALID,-0.0339617,VALID,20.6871,VALID,105,VALID,1.11967,
2009-06-01, 03:09:00,VALID,916.18,VALID,0,VALID,100,VALID,-0.0339617,VALID,20.6874,VALID,118,VALID,1.10356,
2009-06-01, 03:10:00,VALID,916.153,VALID,0,VALID,100,VALID,-0.0339617,VALID,20.6906,VALID,128,VALID,1.02827,
2009-06-01, 03:11:00,VALID,916.125,VALID,0,VALID,100,VALID,0,VALID,20.6841,VALID,121,VALID,1.05729,
2009-06-01, 03:12:00,VALID,916.118,VALID,0,VALID,100,VALID,-0.0169808,VALID,20.6874,VALID,132,VALID,0.983994,
2009-06-01, 03:13:00,VALID,916.114,VALID,0,VALID,100,VALID,0,VALID,20.6939,VALID,122,VALID,0.732376,
2009-06-01, 03:14:00,VALID,916.114,VALID,0,VALID,100,VALID,-0.0169808,VALID,20.6909,VALID,117,VALID,0.785764,
2009-06-01, 03:15:00,VALID,916.1,VALID,0,VALID,100,VALID,-0.0509425,VALID,20.6906,VALID,129,VALID,0.87779,
2009-06-01, 03:16:00,VALID,916.09,VALID,0,VALID,100,VALID,-0.0169808,VALID,20.6801,VALID,143,VALID,1.48251,
2009-06-01, 03:17:00,VALID,916.066,VALID,0,VALID,100,VALID,0,VALID,20.6874,VALID,144,VALID,1.69308,
2009-06-01, 03:18:00,VALID,916.046,VALID,0,VALID,100,VALID,-0.0509425,VALID,20.6739,VALID,140,VALID,1.65645,
2009-06-01, 03:19:00,VALID,916.048,VALID,0,VALID,100,VALID,0.0169808,VALID,20.6933,VALID,147,VALID,1.65352,
2009-06-01, 03:20:00,VALID,916.036,VALID,0,VALID,100,VALID,-0.0169808,VALID,20.6998,VALID,156,VALID,1.09356,
2009-06-01, 03:21:00,VALID,916.021,VALID,0,VALID,100,VALID,0,VALID,20.7001,VALID,143,VALID,1.62976,
2009-06-01, 03:22:00,VALID,915.999,VALID,0,VALID,100,VALID,-0.0169808,VALID,20.7031,VALID,152,VALID,1.12118,
2009-06-01, 03:23:00,VALID,915.969,VALID,0,VALID,100,VALID,-0.0339617,VALID,20.7163,VALID,167,VALID,0.651758,
2009-06-01, 03:24:00,VALID,915.944,VALID,0,VALID,100,VALID,0,VALID,20.7263,VALID,158,VALID,0.736192,
2009-06-01, 03:25:00,VALID,915.917,VALID,0,VALID,100,VALID,-0.0169808,VALID,20.7296,VALID,156,VALID,0.852121,
2009-06-01, 03:26:00,VALID,915.896,VALID,0,VALID,100,VALID,-0.0339617,VALID,20.732,VALID,171,VALID,0.176639,
2009-06-01, 03:27:00,VALID,915.902,VALID,0,VALID,100,VALID,0,VALID,20.7523,VALID,198,VALID,0.170015,
2009-06-01, 03:28:00,VALID,915.9,VALID,0,VALID,100,VALID,0,VALID,20.7418,VALID,245,VALID,0.637962,
2009-06-01, 03:29:00,VALID,915.93,VALID,0,VALID,100,VALID,-0.0169808,VALID,20.7458,VALID,237,VALID,0.495994,
2009-06-01, 03:30:00,VALID,915.943,VALID,0,VALID,100,VALID,0,VALID,20.732,VALID,200,VALID,1.03889,
2009-06-01, 03:31:00,VALID,915.939,VALID,0,VALID,100,VALID,-0.0169808,VALID,20.7163,VALID,164,VALID,1.0923,
2009-06-01, 03:32:00,VALID,915.931,VALID,0,VALID,100,VALID,0,VALID,20.709,VALID,179,VALID,0.927912,
2009-06-01, 03:33:00,VALID,915.905,VALID,0,VALID,100,VALID,0,VALID,20.7093,VALID,175,VALID,0.72218,
2009-06-01, 03:34:00,VALID,915.886,VALID,0,VALID,100,VALID,-0.0169808,VALID,20.7166,VALID,176,VALID,0.487424,
2009-06-01, 03:35:00,VALID,915.854,VALID,0,VALID,100,VALID,-0.0339617,VALID,20.7196,VALID,167,VALID,0.702035,
2009-06-01, 03:36:00,VALID,915.813,VALID,0,VALID,100,VALID,-0.0509425,VALID,20.7098,VALID,151,VALID,0.645531,
2009-06-01, 03:37:00,VALID,915.781,VALID,0,VALID,100,VALID,-0.0169808,VALID,20.6971,VALID,141,VALID,1.09611,
2009-06-01, 03:38:00,VALID,915.768,VALID,0,VALID,100,VALID,-0.0169808,VALID,20.6833,VALID,154,VALID,0.879764,
2009-06-01, 03:39:00,VALID,915.753,VALID,0,VALID,100,VALID,0,VALID,20.6776,VALID,144,VALID,0.894614,
2009-06-01, 03:40:00,VALID,915.746,VALID,0,VALID,100,VALID,-0.0509425,VALID,20.6906,VALID,140,VALID,0.527058,
2009-06-01, 03:41:00,VALID,915.734,VALID,0,VALID,100,VALID,-0.0169808,VALID,20.6839,VALID,142,VALID,0.884527,
2009-06-01, 03:42:00,VALID,915.743,VALID,0,VALID,100,VALID,0,VALID,20.6836,VALID,139,VALID,0.107851,
2009-06-01, 03:43:00,VALID,915.731,VALID,0,VALID,100,VALID,-0.0169808,VALID,20.7066,VALID,179,VALID,0.313408,
2009-06-01, 03:44:00,VALID,915.749,VALID,0,VALID,100,VALID,-0.0169808,VALID,20.7028,VALID,228,VALID,0.380087,
2009-06-01, 03:45:00,VALID,915.741,VALID,0,VALID,100,VALID,0,VALID,20.709,VALID,241,VALID,0.731898,
2009-06-01, 03:46:00,VALID,915.757,VALID,0,VALID,100,VALID,0,VALID,20.7133,VALID,220,VALID,0.310213,